This is the latest recevied weather packets stored in our database for station/object DB0OHL. If no packets are shown the sender has not sent any weather packets the latest 10 day(s).
| Time | Temp. | Humidity | Pressure | Rain* | Wind** | Luminosity | Snow |
|---|---|---|---|---|---|---|---|
| 1778034946 | 8.89° C | 99% | 1005.9 hPa | 2.03 mm | - | - | - |
| 1778034343 | 8.89° C | 99% | 1005.9 hPa | 2.03 mm | - | - | - |
| 1778033740 | 8.89° C | 99% | 1005.9 hPa | 2.03 mm | - | - | - |
| 1778033138 | 8.89° C | 99% | 1005.9 hPa | 2.03 mm | - | - | - |
| 1778032535 | 8.89° C | 99% | 1006 hPa | 2.29 mm | - | - | - |
| 1778031933 | 8.89° C | 99% | 1006 hPa | 2.03 mm | - | - | - |
| 1778031330 | 8.89° C | 99% | 1006 hPa | 2.03 mm | - | - | - |
| 1778030728 | 8.89° C | 99% | 1006 hPa | 1.78 mm | - | - | - |
| 1778030126 | 8.89° C | 99% | 1006.1 hPa | 1.78 mm | - | - | - |
| 1778029523 | 8.89° C | 99% | 1006.2 hPa | 2.03 mm | - | - | - |
| 1778028920 | 8.89° C | 99% | 1006.3 hPa | 2.03 mm | - | - | - |
| 1778028318 | 8.89° C | 99% | 1006.3 hPa | 2.03 mm | - | - | - |
| 1778027715 | 8.89° C | 99% | 1006.4 hPa | 2.29 mm | - | - | - |
| 1778027173 | 8.89° C | 99% | 1006.5 hPa | 2.29 mm | - | - | - |
| 1778026570 | 8.89° C | 99% | 1006.5 hPa | 2.79 mm | - | - | - |
| 1778025968 | 8.89° C | 99% | 1006.6 hPa | 3.3 mm | - | - | - |
| 1778025365 | 8.89° C | 99% | 1006.8 hPa | 3.56 mm | - | - | - |
| 1778024763 | 8.89° C | 99% | 1007 hPa | 3.81 mm | - | - | - |
| 1778024160 | 8.89° C | 99% | 1007.1 hPa | 3.56 mm | - | - | - |
| 1778023558 | 8.89° C | 99% | 1006.9 hPa | 3.56 mm | - | - | - |
| 1778022955 | 8.89° C | 99% | 1007 hPa | 3.3 mm | - | - | - |
| 1778022353 | 9.44° C | 99% | 1007.2 hPa | 2.29 mm | - | - | - |
| 1778021750 | 9.44° C | 99% | 1007.2 hPa | 1.78 mm | - | - | - |
| 1778021148 | 9.44° C | 99% | 1007.1 hPa | 1.52 mm | - | - | - |
| 1778020545 | 9.44° C | 99% | 1007.3 hPa | 1.27 mm | - | - | - |
* Rain latest hour (hover to see other rain measurements)
** Current wind speed in m/s (hover to see current wind gust speed)